Theta_e
340 340 340 339 340 340 344 347 346 347 348 347 348 349 348 349 348 348 347 347 347 339 339 341 340 340 347 342 346 346 346 346 346 345 345 345 344 345 345 344 344 344 344 344 343 344 342 343 344 344 342 342 342 332 331 331 332 333 332 333 335 331
339 339 340 340 341 341 342 345 339 341 343 345 347 348 346 344 348 341 348 343 337 340 336 335 337 347 342 342 342 346 346 346 345 345 345 346 344 345 345 344 344 344 344 344 345 331 332 339 344 343 342 340 331 329 330 331 331 331 331 330 333 335
339 339 339 339 340 341 340 338 337 338 342 345 345 345 341 343 338 339 340 337 339 335 334 335 336 343 343 346 343 346 346 346 346 344 345 345 345 345 344 345 345 344 345 345 331 327 327 325 328 344 341 333 328 329 330 330 329 330 328 329 328 337
339 338 338 338 341 341 339 337 338 337 337 336 337 340 336 337 336 337 339 334 333 334 332 328 346 347 346 340 338 346 346 346 346 346 345 344 344 345 345 344 344 345 339 336 331 328 328 326 324 327 329 328 328 328 329 329 328 327 327 332 328 336
338 338 338 340 342 341 339 338 336 337 335 334 334 333 333 333 336 338 340 335 331 335 332 330 331 333 333 334 333 334 338 336 334 335 343 332 331 333 333 330 328 332 331 334 333 330 329 327 327 329 329 328 328 328 328 330 328 326 326 327 331 337
338 338 339 339 339 342 339 336 334 336 335 334 333 332 332 331 333 334 335 335 336 331 332 330 329 330 334 333 333 333 333 332 331 332 339 334 332 332 331 330 331 332 333 334 334 332 329 331 328 327 329 328 327 327 327 327 327 328 327 326 333 337
338 338 338 338 338 339 337 336 335 336 334 333 333 331 331 333 334 334 333 336 333 332 332 331 331 333 333 333 332 332 332 331 330 331 336 334 332 332 331 333 333 332 330 332 333 333 332 330 329 329 329 329 327 327 326 326 327 326 326 327 334 337
338 338 337 338 338 337 336 336 337 341 336 339 334 332 331 333 336 336 335 335 336 332 331 330 332 332 334 333 333 332 331 331 331 331 332 332 330 329 329 331 332 329 330 332 333 332 331 332 330 330 329 330 327 326 326 326 326 327 326 327 330 336
338 338 338 338 337 337 337 336 338 336 334 342 332 332 332 333 334 336 337 336 336 331 330 330 330 332 332 332 332 333 331 331 330 330 329 329 329 329 328 329 330 331 328 328 328 330 331 331 329 330 329 329 327 326 326 326 326 326 326 326 328 334
338 338 338 338 336 337 337 335 335 334 334 340 331 331 333 331 331 333 335 336 335 333 330 330 330 331 331 331 331 332 332 330 329 329 328 329 328 328 328 327 328 328 331 328 329 331 332 330 330 330 328 328 327 327 326 326 326 326 326 327 327 333
338 341 338 337 336 335 336 334 333 332 332 334 332 333 333 332 331 331 332 333 333 334 334 332 331 330 331 331 331 331 331 331 331 330 329 329 327 329 327 327 329 329 330 330 331 330 331 329 325 325 328 327 327 326 326 326 326 326 326 326 327 330
338 339 338 336 337 334 334 333 333 331 332 332 333 331 331 331 333 331 332 331 331 332 335 334 332 330 330 331 331 331 331 331 332 332 332 330 329 329 329 329 330 329 329 329 329 329 328 326 324 326 326 328 327 326 325 326 326 326 326 326 327 329
337 337 335 335 335 334 334 334 334 332 333 334 332 331 331 333 331 331 331 331 332 333 333 333 332 331 334 330 330 330 331 332 332 332 333 333 332 328 328 328 328 329 329 328 328 326 329 324 324 325 326 327 327 326 326 326 326 326 326 326 327 328
335 334 334 333 333 333 332 334 336 335 337 335 331 331 333 333 334 333 332 332 331 333 336 336 334 331 330 330 330 330 330 330 331 332 332 332 332 330 329 328 327 327 332 327 325 324 325 325 325 326 326 327 326 326 325 326 325 326 326 326 327 328
336 333 336 332 333 331 331 335 333 332 331 333 334 332 330 328 330 331 332 332 333 333 334 336 336 333 331 331 331 330 331 331 331 331 332 333 332 331 330 330 329 328 326 326 325 326 326 325 325 325 325 326 327 328 327 326 325 326 326 326 327 327
334 333 332 332 332 332 332 331 332 335 330 333 337 336 333 332 332 332 334 334 334 335 335 334 335 336 333 333 332 331 332 332 331 331 330 331 332 332 331 330 330 328 326 326 326 325 325 325 326 326 326 327 327 329 327 327 327 327 326 326 327 326
333 332 331 332 331 332 331 330 330 332 331 332 334 335 333 330 330 332 333 333 334 335 335 333 333 335 335 333 332 332 332 332 331 330 330 329 330 331 331 331 329 330 328 326 326 325 325 324 324 326 326 327 327 329 328 328 327 326 326 325 325 326
333 332 330 330 330 331 332 331 331 332 336 332 331 332 332 332 332 331 332 333 333 333 334 333 333 334 335 335 333 332 331 331 331 330 330 329 329 330 330 330 330 330 329 328 326 325 325 325 325 325 324 325 325 327 328 329 329 330 325 324 324 325
334 332 330 330 332 332 332 333 332 330 328 328 328 329 330 332 333 332 332 333 333 332 334 333 334 334 335 335 335 333 331 331 331 330 329 328 329 329 330 329 329 329 330 329 328 327 327 325 325 323 324 324 325 326 327 328 329 327 326 326 326 327
334 333 332 329 329 329 330 332 332 330 328 327 327 329 329 331 332 333 334 334 333 332 332 334 333 333 333 335 334 333 331 331 332 331 330 328 328 328 328 329 329 328 327 328 329 327 326 326 324 322 325 323 325 325 326 326 326 327 327 326 326 327
333 333 332 329 328 327 325 330 331 330 329 328 327 328 330 330 331 333 334 334 334 334 332 332 334 332 332 335 336 333 332 331 331 332 332 331 329 328 329 329 329 329 328 326 326 326 325 326 323 321 321 321 321 325 329 326 325 327 327 328 327 326
332 329 328 327 328 327 323 324 324 325 326 326 326 327 329 330 330 332 332 332 333 333 332 332 333 332 332 334 335 335 334 333 332 332 332 333 332 331 329 329 329 327 326 328 326 326 326 325 319 319 320 319 320 322 324 324 323 325 326 327 327 327
328 328 327 331 329 328 328 329 327 325 325 325 327 329 329 330 331 332 331 331 332 332 332 332 332 332 332 333 334 334 334 334 333 332 329 329 331 331 331 330 329 326 323 325 327 328 326 326 321 320 319 318 317 317 320 321 322 324 326 326 327 327
328 328 327 328 332 328 329 329 331 333 331 329 328 332 327 328 328 329 332 332 332 332 332 332 332 333 333 332 333 333 334 333 332 332 330 329 329 330 330 329 328 327 325 322 324 325 328 326 324 321 315 318 316 316 311 316 319 321 325 326 326 327
330 329 329 330 331 329 329 329 331 332 331 328 327 327 328 329 329 329 332 329 331 330 331 333 333 333 334 334 334 333 333 334 332 331 331 330 330 330 330 330 330 328 327 325 323 324 325 327 326 326 322 316 313 312 315 314 318 319 324 324 326 327
326 326 326 327 329 329 329 328 327 326 326 325 325 325 326 326 327 327 327 329 330 330 330 330 333 334 334 335 333 333 333 333 333 332 331 331 331 330 329 329 331 330 328 328 326 324 322 326 326 326 326 325 322 317 316 316 318 313 322 326 326 326
325 325 326 326 328 328 327 328 328 326 326 325 323 324 327 329 328 329 329 329 329 329 329 328 330 330 330 332 332 332 332 333 333 332 332 330 329 330 330 330 330 329 329 329 327 323 323 322 325 326 327 326 325 324 321 318 314 314 315 322 325 325
325 325 325 326 326 328 326 326 326 325 325 324 325 325 327 328 329 330 328 328 327 327 327 327 327 327 329 330 331 331 333 333 332 331 330 330 329 330 330 330 330 330 330 329 327 324 324 324 321 322 325 325 325 326 326 324 321 318 316 316 319 324
323 323 323 325 324 325 326 325 324 324 322 324 325 325 327 328 328 327 327 326 325 326 326 327 326 327 327 328 329 329 331 332 332 331 331 330 330 330 330 330 329 329 328 328 328 328 325 323 324 323 323 323 324 323 324 324 324 321 316 315 317 320
321 322 323 323 323 323 324 324 323 323 322 321 323 323 325 325 326 326 326 326 324 324 325 325 326 325 325 327 327 327 328 329 330 331 331 330 329 329 329 329 330 330 330 328 327 326 325 324 325 326 325 324 322 322 323 322 322 321 320 319 316 318
319 321 321 322 322 322 322 322 322 322 321 321 320 319 319 320 322 324 325 325 324 323 323 324 324 325 324 325 326 327 326 326 328 330 331 330 329 329 329 330 331 330 328 325 325 327 325 325 326 326 325 325 323 322 321 320 320 321 320 318 317 317
317 319 320 321 321 320 320 320 320 319 318 318 319 319 319 319 321 322 323 324 324 324 323 324 325 326 326 326 326 325 325 325 326 327 328 329 329 329 329 329 329 328 328 328 328 328 326 326 326 326 326 326 325 325 324 323 323 323 321 320 320 319
315 317 319 320 319 318 318 318 319 319 319 320 319 319 319 320 320 320 321 321 322 322 323 323 324 325 326 327 327 326 326 325 325 325 327 328 329 329 329 329 329 330 330 329 327 327 326 326 327 326 326 327 326 326 325 326 326 324 324 324 321 318
315 315 316 316 315 315 316 317 318 319 319 319 318 319 319 319 319 319 320 319 320 321 321 321 322 322 324 326 327 327 327 327 326 325 326 326 326 327 328 328 329 329 329 330 329 328 328 328 329 328 328 327 326 326 326 327 326 326 324 322 320 319
313 312 312 312 313 313 314 315 316 317 317 317 317 317 317 318 317 317 318 318 319 320 320 320 320 321 323 324 324 325 326 326 326 326 326 325 326 326 327 328 328 329 330 330 330 330 329 329 328 328 328 327 326 326 327 327 327 326 326 324 323 321
310 310 311 313 312 312 313 314 314 314 314 314 316 315 315 315 315 316 316 317 317 318 318 318 318 319 320 321 322 323 323 324 326 326 327 327 327 327 327 327 328 329 328 330 329 329 329 329 328 328 328 328 326 326 327 328 328 327 327 326 325 324
310 310 311 313 312 313 312 312 312 312 312 311 311 311 312 311 312 313 313 314 314 315 315 315 315 317 316 317 319 320 321 319 317 319 322 323 324 325 327 327 328 328 328 329 328 328 328 328 328 328 327 327 327 327 328 328 328 328 327 327 326 326
Wind_Speed
5 6 5 5 4 5 7 12 10 12 11 10 10 11 10 11 9 8 6 6 5 2 2 1 2 2 6 3 6 7 8 7 7 7 6 5 3 2 1 1 2 3 4 4 4 6 10 8 7 8 12 12 11 6 4 4 4 4 3 3 4 4
5 6 5 5 4 4 4 7 3 4 4 7 9 9 7 4 6 3 7 4 2 1 1 1 0 2 1 2 4 6 6 6 6 6 5 5 4 2 1 0 2 3 4 4 4 4 6 6 6 9 11 12 7 5 4 4 4 4 3 3 4 5
5 5 5 4 3 3 4 3 3 3 3 6 4 4 3 3 2 3 2 2 1 1 1 1 1 1 1 1 1 6 6 6 5 5 4 4 4 3 1 0 1 3 4 5 2 4 5 4 3 8 10 7 5 5 4 4 3 4 3 3 3 7
5 4 4 4 3 4 3 3 3 2 2 2 2 3 3 3 2 2 2 2 1 1 1 1 1 3 3 0 1 3 5 5 5 5 4 1 2 2 2 1 1 2 4 3 3 3 5 3 3 4 5 5 5 5 5 4 4 3 3 2 3 9
4 4 4 4 4 4 3 3 3 2 2 2 2 2 2 2 2 2 3 1 1 1 1 1 1 1 2 0 1 0 0 0 1 0 2 1 1 1 1 0 1 1 2 2 3 3 6 3 2 4 5 4 4 4 4 4 5 4 3 2 3 9
4 4 5 4 4 5 5 3 3 3 2 1 2 3 3 2 2 2 2 1 1 1 0 1 1 1 1 0 0 1 1 1 0 1 0 1 2 2 2 1 1 1 0 1 1 2 1 5 4 2 4 4 4 3 3 4 5 4 4 3 3 11
5 5 4 4 4 4 4 3 3 2 3 1 1 3 2 2 2 2 2 1 2 1 1 1 2 2 1 1 1 1 2 1 2 2 2 1 2 2 3 2 2 2 0 1 1 2 3 4 3 4 4 4 4 4 4 3 4 5 4 4 4 12
5 5 4 5 5 4 3 3 4 4 2 3 2 2 2 2 2 1 1 0 0 1 2 1 1 2 3 0 1 2 2 2 2 2 2 1 2 3 3 3 2 2 2 1 1 2 1 2 4 4 4 4 5 5 5 5 4 4 5 4 3 9
5 5 5 5 5 4 4 4 3 3 3 4 2 2 1 2 2 2 1 0 0 2 1 1 2 3 1 2 2 1 1 2 2 2 1 3 2 4 3 3 3 3 2 2 2 3 2 2 1 3 4 5 6 6 6 5 5 5 5 5 4 6
6 6 6 5 5 5 5 5 4 3 3 3 1 1 0 1 1 1 1 1 2 1 2 2 2 2 2 2 2 2 1 2 2 2 2 3 3 4 5 3 2 2 3 3 3 3 2 2 2 0 3 4 6 7 7 7 6 6 5 5 5 5
5 6 5 5 5 5 5 4 3 3 3 2 1 1 0 0 0 0 1 2 3 2 2 2 2 2 2 2 2 2 3 2 3 4 2 4 2 4 4 4 3 4 4 4 5 3 2 1 2 2 1 3 4 4 6 6 6 6 5 5 5 4
4 5 5 4 4 4 4 3 3 2 1 0 1 1 1 1 1 2 2 2 2 2 2 3 3 2 2 2 3 3 4 3 5 4 3 4 3 3 4 4 3 2 3 3 3 1 1 2 1 0 2 4 4 4 3 4 6 6 6 5 5 5
4 4 4 5 4 3 3 3 3 2 1 1 2 1 2 2 2 2 2 2 3 3 2 3 3 3 3 2 2 3 3 4 4 4 3 3 3 2 2 3 2 1 1 2 2 1 1 1 2 1 1 5 5 4 3 2 4 5 6 5 5 5
4 4 3 3 3 3 3 3 2 2 2 2 2 2 2 2 3 2 2 2 3 3 3 3 3 3 3 3 3 3 4 4 4 4 4 3 3 2 4 3 3 1 1 1 1 1 1 1 2 1 0 2 6 6 4 3 2 4 4 5 5 5
3 3 3 3 2 2 2 3 2 2 1 1 1 1 2 2 2 2 1 3 3 3 3 4 3 3 3 4 3 4 4 5 3 3 4 4 3 3 3 5 4 5 3 4 2 1 1 2 1 2 1 1 5 5 5 3 2 1 4 4 5 5
3 3 2 2 0 0 1 2 2 2 2 1 2 3 2 2 2 2 2 3 4 4 4 3 3 3 4 3 4 4 5 4 3 3 3 3 3 4 3 4 2 3 5 5 4 4 2 2 1 1 1 1 3 5 6 5 5 4 2 3 5 5
3 2 2 1 0 0 1 0 1 0 0 1 2 2 2 2 1 2 2 3 3 4 3 3 3 3 4 4 4 4 4 4 3 3 3 2 3 3 3 5 3 3 5 6 5 4 3 3 2 2 3 3 3 4 6 6 4 2 3 3 5 5
1 1 1 1 0 1 1 1 2 1 1 1 2 2 2 1 2 2 3 4 4 3 3 4 4 4 5 5 4 4 4 4 3 1 1 2 4 3 4 4 6 5 6 4 3 4 5 4 3 3 2 2 3 3 4 5 5 4 1 1 2 6
2 2 1 1 1 2 2 2 2 2 2 2 2 2 2 3 3 3 3 4 4 4 4 4 4 4 5 4 4 4 4 3 2 2 3 4 6 5 4 4 5 6 4 5 7 7 7 3 3 2 2 2 3 4 3 4 4 5 5 8 5 8
2 2 2 2 1 2 3 2 2 4 4 3 3 3 2 4 3 4 5 4 4 4 4 4 4 3 4 4 3 4 4 3 4 4 5 5 5 5 5 5 6 5 5 4 3 3 3 4 0 1 1 1 1 3 3 3 5 7 8 9 6 4
3 3 3 3 1 1 1 1 1 1 3 3 3 3 3 3 3 4 4 4 4 5 4 4 4 3 4 4 4 3 4 4 4 5 6 6 6 5 5 5 4 3 5 5 5 2 2 3 4 1 1 0 1 0 3 3 4 6 7 7 6 7
2 2 2 3 2 1 1 2 2 2 2 2 3 3 4 4 4 3 3 4 4 4 4 4 4 3 3 4 5 4 5 5 5 5 6 6 6 6 5 6 4 4 3 6 5 5 4 6 3 5 3 2 1 1 1 2 3 5 6 6 7 7
2 3 2 2 3 2 2 1 1 1 1 2 3 3 3 4 3 4 4 3 3 3 3 4 4 3 4 5 5 5 5 5 5 5 4 5 5 6 5 7 6 6 5 4 4 4 6 8 4 3 2 2 2 2 3 3 3 5 6 6 6 7
3 3 3 2 1 2 1 0 1 2 2 2 2 3 2 2 3 4 6 5 4 4 3 5 4 4 4 3 3 5 5 5 6 5 5 6 6 7 6 5 5 6 4 5 4 4 6 7 4 5 2 4 2 2 1 7 7 5 6 7 7 8
4 4 3 3 1 1 2 1 1 2 2 3 3 4 6 7 6 3 3 4 5 3 3 4 3 3 2 5 4 5 5 6 6 5 5 6 6 7 6 6 7 7 7 7 6 4 3 5 8 6 4 2 0 1 5 1 5 5 5 6 8 8
6 6 6 5 4 6 6 6 6 5 5 4 6 6 7 6 6 6 5 4 5 5 3 3 3 3 4 4 4 4 5 6 6 5 5 6 6 6 6 7 7 7 6 7 8 6 5 4 6 8 8 5 2 3 2 1 3 5 2 6 5 8
6 5 6 5 5 6 7 6 6 5 4 4 4 3 2 3 4 5 4 6 6 5 4 3 3 3 3 3 4 4 5 6 6 4 3 4 5 6 6 7 7 5 7 6 5 7 6 4 3 7 6 7 4 1 1 3 5 2 2 4 5 7
5 6 5 5 8 7 7 5 6 6 5 4 3 2 4 4 4 4 6 6 5 5 5 3 3 3 3 3 4 4 5 5 5 6 5 5 6 6 6 7 7 7 6 4 6 8 7 6 8 5 6 9 8 7 4 3 2 5 3 4 5 4
7 7 5 7 7 6 5 5 5 4 5 4 3 2 1 2 4 4 6 6 6 6 6 6 5 5 4 3 3 3 3 4 5 5 5 5 5 6 7 8 7 7 7 8 7 5 5 6 6 7 6 7 7 6 5 5 4 2 3 5 6 7
7 6 5 6 6 6 5 5 5 4 5 4 3 2 1 4 5 5 6 7 6 7 7 7 7 5 6 5 5 4 3 4 4 4 5 5 6 6 6 7 7 7 9 8 4 5 8 9 8 7 7 6 6 6 6 6 6 5 4 4 6 6
6 5 5 5 5 6 5 5 5 5 5 4 2 2 5 7 6 6 7 6 6 6 6 6 6 6 5 6 6 4 4 5 4 5 5 5 5 6 7 7 7 7 5 6 5 6 7 8 6 6 7 7 8 8 9 9 9 8 7 6 6 7
6 5 5 5 5 5 4 4 3 3 4 3 3 5 6 6 7 7 6 6 6 6 7 6 7 7 8 8 7 6 5 5 5 5 5 5 5 5 6 6 6 6 5 6 6 6 6 7 9 8 8 7 8 8 7 8 8 8 9 10 9 7
5 4 4 3 4 4 4 4 3 4 4 5 6 6 6 7 6 6 5 6 6 6 6 7 8 8 9 10 8 7 7 6 6 5 5 5 5 6 7 6 7 7 7 7 6 6 6 8 9 8 7 7 7 8 9 8 7 7 7 7 7 7
7 6 5 6 5 6 6 6 6 6 6 6 7 6 6 6 5 5 4 5 5 6 6 7 8 8 8 8 8 8 8 7 6 6 5 5 6 6 6 7 7 7 7 6 6 7 9 9 8 9 8 7 8 9 9 8 8 8 8 8 8 9
6 5 5 4 5 6 6 7 7 7 7 6 6 6 6 5 6 6 6 5 5 5 6 6 7 7 8 9 9 8 9 8 8 8 7 7 6 6 6 7 7 7 6 6 7 7 7 8 8 9 8 8 8 8 8 8 8 9 8 9 9 9
4 4 4 5 5 6 7 7 8 9 9 8 7 6 6 7 6 6 6 6 6 6 6 7 6 7 9 8 8 9 9 10 11 10 9 8 8 7 7 7 7 6 7 5 7 8 7 7 9 10 10 9 8 9 8 8 9 9 9 9 9 7
4 4 6 6 7 7 8 9 9 9 9 9 8 8 7 7 7 6 6 6 7 6 7 7 7 7 8 8 8 9 9 11 11 11 11 11 10 9 9 8 7 7 7 6 6 7 7 7 8 8 8 10 9 8 8 8 9 9 9 10 10 9
Wind_Direction
119 127 129 135 141 143 155 148 145 146 151 153 148 147 142 144 145 152 148 148 139 104 110 122 129 141 151 139 149 145 143 142 142 140 136 136 144 144 122 48 34 6 358 11 18 61 72 75 96 110 131 139 129 114 127 126 132 136 145 150 145 162
127 136 145 144 146 148 146 143 131 146 157 156 157 153 145 148 148 140 155 150 117 141 85 53 40 165 64 164 162 162 158 150 150 147 145 144 151 164 135 37 10 354 344 349 10 69 68 61 103 137 137 130 118 128 127 135 139 147 155 162 158 182
143 154 147 136 124 112 104 100 108 135 159 159 160 133 127 135 101 139 114 104 106 60 74 42 1 256 151 268 247 182 173 166 158 162 156 157 153 173 196 186 325 345 340 351 31 71 78 71 40 135 138 122 127 131 134 138 148 151 163 184 172 168
154 156 133 122 107 101 105 114 131 144 114 99 98 112 119 116 122 118 113 104 108 98 89 83 332 337 311 137 316 249 193 183 182 169 176 150 178 185 197 254 309 355 22 11 2 52 87 75 79 92 114 130 135 141 146 156 155 159 176 204 188 164
153 150 139 140 135 122 123 131 144 149 125 110 119 105 93 87 103 111 129 135 110 86 52 40 53 1 7 118 194 282 335 359 350 298 116 24 315 313 24 47 359 23 52 22 359 10 92 92 61 101 129 137 143 151 156 157 158 161 195 219 208 165
158 161 155 140 135 147 140 153 157 164 143 153 147 113 97 99 106 121 129 140 120 77 40 19 23 20 27 118 281 288 218 172 321 285 324 259 299 301 305 334 333 297 57 75 357 318 92 120 116 106 141 150 153 158 161 165 167 165 194 209 201 168
163 161 154 136 134 131 152 164 153 149 149 182 119 140 123 105 100 125 150 152 143 166 187 9 339 328 332 92 215 261 265 273 261 261 277 243 282 292 297 299 294 278 333 7 312 312 323 124 141 144 160 171 160 163 173 185 180 176 187 197 213 176
163 161 157 146 137 135 147 151 167 170 163 192 162 175 145 131 131 118 122 9 216 209 202 173 222 275 276 8 229 214 230 246 255 263 269 241 252 280 290 298 296 299 312 305 282 288 298 315 136 156 160 177 176 169 175 184 194 188 184 195 226 182
166 165 156 143 139 143 153 152 152 148 177 199 165 164 140 133 123 122 120 154 253 273 293 178 193 225 241 254 273 268 214 243 249 259 273 261 239 252 258 258 273 282 286 288 283 278 259 264 157 165 166 180 183 177 175 178 192 193 190 197 211 190
166 167 156 141 146 154 162 157 162 167 183 191 147 125 147 135 87 101 122 169 226 228 250 243 228 225 201 240 254 263 265 245 236 251 237 257 243 244 247 246 253 270 280 279 277 268 285 280 338 207 190 185 192 185 177 175 183 193 192 193 198 198
166 172 152 150 151 161 159 154 156 159 193 173 163 149 165 54 41 131 172 184 209 227 237 253 244 236 229 222 238 246 250 265 266 245 216 241 241 238 261 252 229 227 239 249 253 272 267 327 59 34 86 172 193 186 181 176 178 187 187 191 194 197
174 172 158 148 153 156 152 144 153 142 179 323 155 205 202 174 253 245 231 219 220 226 239 254 256 248 227 216 213 219 233 237 253 258 235 228 230 230 232 243 247 236 242 243 265 260 206 131 116 301 122 111 131 173 201 186 186 187 186 184 192 199
174 181 155 161 169 155 137 141 141 140 144 184 221 214 237 229 239 243 238 240 240 234 235 242 250 251 251 240 231 226 231 233 243 252 245 237 235 229 243 267 283 309 258 236 242 148 91 123 134 235 146 130 136 156 166 207 214 198 190 184 189 195
172 169 167 150 156 153 139 130 123 118 180 170 194 192 220 215 234 236 232 242 242 241 236 227 227 241 241 250 256 248 239 237 235 253 262 247 242 255 245 251 260 327 335 39 300 255 207 199 145 195 278 164 143 160 150 169 241 247 208 189 186 190
168 169 163 166 183 168 127 130 133 139 167 177 208 195 210 206 218 236 212 242 242 240 237 230 220 222 239 236 255 264 260 248 217 226 248 255 245 236 223 230 222 233 246 250 241 237 218 250 156 169 200 121 137 141 137 155 150 226 271 239 182 194
163 163 140 178 195 96 111 122 137 164 155 180 238 248 234 223 215 217 227 240 242 240 232 223 220 210 229 228 229 245 256 268 251 223 233 253 248 259 262 264 223 221 250 253 244 266 236 237 173 170 200 199 169 152 153 151 179 183 177 272 244 196
171 151 126 115 70 27 75 92 98 43 129 167 218 242 227 208 217 233 235 240 240 240 241 221 215 215 223 234 234 240 254 263 273 249 255 271 258 250 252 256 247 210 230 241 215 234 239 201 195 179 171 186 187 165 158 173 177 197 203 196 266 238
115 89 96 133 69 42 39 45 36 34 13 20 294 287 294 300 274 237 240 253 253 244 243 230 221 216 223 229 233 241 254 250 241 243 253 261 258 263 253 245 255 221 214 221 266 257 244 204 197 190 173 184 194 177 154 162 155 169 121 287 248 279
141 121 102 82 72 62 64 49 39 39 15 336 309 293 293 299 265 257 236 235 231 234 239 235 228 219 223 227 230 235 243 245 213 219 226 255 266 254 238 233 244 259 238 213 204 214 245 232 203 172 179 225 208 194 162 157 148 144 153 223 201 233
133 122 106 82 74 62 55 32 358 342 342 320 307 291 262 242 264 261 257 243 235 235 241 243 236 225 227 237 239 246 254 254 243 221 235 234 237 237 241 236 237 243 257 262 242 220 174 171 140 106 145 58 222 184 163 167 162 161 178 210 201 238
137 139 131 135 91 107 97 76 44 320 281 282 288 298 286 264 241 238 245 244 245 245 247 255 254 232 233 241 238 236 239 252 241 236 234 246 251 252 229 230 235 215 233 244 256 230 179 132 108 21 25 335 322 246 169 171 183 182 188 199 194 207
106 113 124 148 166 134 203 179 171 215 234 284 302 299 295 300 278 273 251 244 242 235 234 239 247 237 246 242 252 251 250 255 250 247 242 246 249 244 252 254 249 252 206 223 238 193 187 123 173 181 174 239 249 225 220 133 201 222 211 193 193 203
159 152 170 162 153 193 219 243 154 248 180 270 240 229 245 278 305 306 295 273 263 259 245 249 238 229 235 236 239 250 254 255 256 254 255 258 254 249 232 229 212 221 230 228 240 196 188 191 188 133 111 112 244 210 222 235 239 230 221 213 192 204
27 18 16 323 351 360 355 310 284 272 277 223 316 354 331 320 342 340 322 322 304 277 271 262 251 231 236 247 239 250 254 250 252 241 239 253 255 254 242 234 225 233 219 252 227 234 196 202 165 141 201 214 190 166 264 227 213 228 203 207 203 208
71 62 44 38 44 145 96 66 13 45 34 19 12 14 21 10 2 342 329 341 311 292 260 257 264 269 265 257 251 248 252 256 253 243 238 247 256 255 251 239 237 238 219 221 233 236 221 203 206 193 169 124 147 229 229 209 182 241 188 209 217 209
62 44 41 35 44 64 59 62 61 52 42 31 34 24 20 4 352 359 342 316 343 347 329 313 301 299 291 283 271 263 263 264 260 250 236 241 252 262 260 253 239 229 232 222 231 226 241 231 217 210 213 211 128 192 198 231 153 238 171 224 212 210
58 53 41 39 40 63 63 59 67 76 78 70 65 29 338 343 2 351 349 4 354 1 357 315 290 280 269 257 253 254 256 257 264 276 259 251 252 255 260 257 260 252 239 234 213 235 217 198 236 241 232 241 242 177 226 158 213 77 222 226 213 204
62 61 51 50 50 46 67 59 63 61 62 58 55 33 6 4 359 358 6 4 350 350 346 344 318 293 268 261 261 264 263 264 268 259 249 242 253 258 257 257 255 252 252 225 198 227 237 193 200 217 215 231 237 245 219 248 286 245 214 180 219 231
60 55 48 54 59 50 59 68 65 58 56 32 25 14 349 15 21 10 18 358 360 348 347 344 348 340 324 311 297 287 285 280 269 264 257 263 263 268 271 273 259 251 250 249 233 217 211 215 200 220 183 214 225 228 237 242 238 236 212 207 229 200
55 53 52 60 69 64 60 62 66 59 63 41 16 346 353 35 26 19 23 7 358 356 349 344 343 340 338 334 326 317 304 294 293 285 277 263 270 270 272 274 269 255 247 236 200 204 220 230 215 217 207 200 199 216 228 234 224 221 245 226 226 211
54 53 52 55 62 66 61 56 60 58 55 45 17 35 40 29 15 22 19 6 1 347 345 342 337 337 341 337 332 325 320 311 307 302 295 285 274 281 282 281 284 291 278 255 244 212 205 229 231 224 218 208 212 206 208 212 215 208 216 220 228 231
49 46 44 41 48 52 58 57 66 68 67 59 51 49 48 39 23 22 10 2 355 349 353 346 346 345 348 345 340 329 320 319 318 314 301 286 278 275 281 283 278 267 259 255 251 236 216 230 228 228 220 213 218 218 221 222 220 207 203 218 213 221
63 49 51 48 51 44 47 49 51 55 49 43 44 42 40 38 23 19 4 3 2 358 352 353 350 351 350 343 342 339 336 330 322 309 292 287 283 285 286 279 278 272 259 253 247 245 230 223 224 222 224 218 219 217 223 226 224 215 215 215 213 226
52 29 30 33 34 38 37 37 40 42 42 37 39 38 38 35 24 14 3 358 6 358 352 355 346 352 339 343 351 345 340 332 320 310 302 295 292 288 282 278 275 272 266 259 244 233 236 241 241 238 232 227 219 221 224 221 218 221 215 207 216 220
46 24 29 27 27 33 28 28 29 33 32 32 35 32 32 27 25 11 3 360 4 359 0 353 350 337 344 352 350 352 352 349 342 333 325 318 314 305 294 287 282 276 271 263 257 253 253 251 249 245 238 232 231 226 224 222 214 213 209 214 214 206
50 24 22 23 20 26 27 34 33 35 32 32 27 26 25 22 15 12 9 6 3 1 1 356 345 346 353 348 350 355 356 358 356 350 340 333 327 320 310 301 293 285 280 271 268 265 264 260 258 255 252 245 234 233 226 221 217 212 211 211 216 204
19 19 28 34 43 44 45 44 36 36 32 30 29 26 19 13 7 4 12 10 7 4 5 4 352 354 352 349 350 1 5 15 5 358 360 359 351 343 333 317 304 295 290 283 272 270 267 262 261 259 254 249 245 242 237 228 220 216 212 212 212 207